Back to catalog

CZ-6A DEB

AlivePO
NORAD 60828·DEBRIS·🇨🇳 China

Launched Aug 6, 2024 from Taiyuan Satellite Launch Center

Loading…

Next Passes (next 24 hours)

TLE

FreshSource: Space-Track

Epoch: Sep 14, 2026, 06:57 UTC

1 60828U 24140HF  26257.28976028  .00000673  00000-0  18946-3 0  9996
2 60828  89.0667 268.0874 0085141  35.3133 325.3668 14.42575548109800

Track CZ-6A DEB in real time with AllMySat

Download on the App Store